#timestamp,LO_Frequency,Hit 
1505469615.8,286046996.8,N
1505469635.6,286046996.1,N
1505469655.4,286046995.1,N
1505469675.3,286046997.6,N
1505469695.1,286046993.4,N
1505469715.8,286046994.1,N
1505469735.7,286046994.2,N
1505469755.5,286046992.0,P
1505469775.3,286046991.7,N
1505469795.2,286046993.7,N
1505469815.9,286046998.0,N
1505469835.7,286046995.6,N
1505469855.6,286046993.9,N
1505469875.4,286046993.0,P
1505469895.2,286046999.2,N
1505469915.1,286046998.5,N
1505469916.0,286046998.5,N
1505469935.8,286047001.6,N
1505469955.6,286047000.1,N
1505469975.5,286046998.2,N
1505469995.3,286046999.1,N
1505470015.1,286046999.1,N
1505470035.8,286046999.5,N
1505470055.7,286047000.5,N
1505470075.5,286046998.1,N
1505470095.3,286046999.5,N
1505470115.2,286046999.3,N
1505470135.9,286046997.1,N
1505470155.7,286046998.9,N
1505470175.6,286046996.5,N
1505470195.4,286046996.9,N
1505470215.2,286046997.9,N
1505470235.1,286046997.5,N
1505470236.0,286046997.5,N
1505470255.8,286046997.3,N
1505470275.6,286046995.4,N
1505470295.5,286046993.4,P
1505470315.3,286046998.8,N
1505470335.1,286046997.7,N
1505470355.9,286046996.2,N
1505470375.7,286046992.1,P
1505470395.5,286046994.6,N
1505470415.4,286046993.3,P
1505470435.2,286046993.4,P
1505470455.0,286047003.6,P
1505470455.9,286047003.6,N
1505470475.8,286047004.7,N
1505470495.6,286047005.9,N
1505470515.4,286047002.1,N
1505470535.3,286046999.9,N
1505470555.1,286046998.6,N
1505470556.0,286046998.6,N
1505470575.8,286046999.5,N
1505470595.7,286046998.3,N
1505470615.5,286047000.9,N
1505470635.3,286046999.9,N
1505470655.2,286047000.5,N
1505470675.9,286046999.6,N
1505470695.7,286046996.6,N
1505470715.5,286046997.6,N
1505470735.4,286046995.0,N
1505470755.2,286046999.2,N
1505470775.0,286046999.4,N
1505470775.9,286046999.4,N
1505470795.8,286046997.4,N
1505470815.6,286046998.3,N
1505470835.4,286047002.4,N
1505470855.3,286047002.6,N
1505470875.1,286046996.6,N
1505470895.8,286046998.0,N
1505470915.7,286046993.7,N
1505470935.5,286046993.5,N
1505470955.3,286046989.0,P
1505470975.2,286046991.0,N
1505470995.9,286046992.9,N
1505471015.7,286046990.3,N
1505471035.6,286046990.1,N
1505471055.4,286046991.1,N
1505471075.2,286046989.3,P
1505471095.1,286046998.4,N
1505471096.0,286046998.4,N
1505471115.8,286046998.7,N
1505471135.6,286046999.3,N
1505471155.5,286046999.3,N
1505471175.3,286047001.0,N
1505471195.1,286046999.3,N
1505471215.9,286046995.1,N
1505471235.7,286046994.2,N
1505471255.5,286046997.4,N
1505471275.3,286046996.6,N
1505471295.2,286046999.5,N
1505471315.0,286046999.0,N
1505471315.9,286046999.0,N
1505471335.7,286046996.7,N
1505471355.6,286046996.6,N
1505471375.4,286046999.0,N
1505471395.2,286046997.6,N
1505471415.1,286046994.0,N
1505471416.0,286046994.0,N
1505471435.8,286046995.9,N
1505471455.6,286046996.2,N
1505471475.5,286046997.3,N
1505471495.3,286046999.3,N
1505471515.1,286046999.3,N
1505471535.9,286047001.1,N
1505471555.7,286047000.8,N
1505471575.5,286046997.1,N
1505471595.3,286046999.4,N
1505471615.2,286047000.6,N
1505471635.0,286047000.9,N
1505471635.9,286047000.9,N
1505471655.7,286046999.5,N
1505471675.6,286046997.3,N
1505471695.4,286046997.6,N
1505471715.2,286046995.5,N
1505471735.1,286046993.4,P
1505471736.0,286046993.4,N
1505471755.8,286046995.4,N
1505471775.6,286046995.0,N
1505471795.5,286046997.7,N
1505471815.3,286046996.1,N
1505471835.1,286046995.2,N
1505471855.9,286046995.4,N
1505471875.7,286046997.6,N
1505471895.5,286046998.5,N
1505471915.4,286047001.2,N
1505471935.2,286047001.2,N
1505471955.0,286046998.3,N
1505471955.9,286046998.3,N
1505471975.8,286047001.0,N
1505471995.6,286047000.8,N
1505472015.4,286047001.0,N
1505472035.3,286046997.0,N
1505472055.1,286047001.2,N
1505472056.0,286047001.2,N
1505472075.8,286046996.8,N
1505472095.7,286046997.1,N
1505472115.5,286046996.6,N
1505472135.3,286046996.4,N
1505472155.1,286046994.6,N
1505472175.9,286046994.6,N
1505472195.7,286046990.2,P
1505472215.6,286046994.4,N
1505472235.4,286046992.5,N
1505472255.2,286046993.1,N
1505472275.1,286046992.8,P
1505472276.0,286046992.8,P
1505472295.8,286046999.4,N
1505472315.6,286047002.8,N
1505472335.4,286047002.6,N
1505472355.3,286046999.8,N
1505472375.1,286046998.4,N
1505472395.8,286046999.5,N
1505472415.7,286046998.2,N
1505472435.5,286047000.4,N
1505472455.3,286047002.6,N
1505472475.2,286047001.5,N
1505472495.9,286047001.5,N
1505472515.7,286047003.8,N
1505472535.6,286047003.2,N
1505472555.4,286047004.1,N
1505472575.2,286047001.8,N
1505472595.1,286047002.0,N
1505472596.0,286047002.0,N
1505472615.8,286046999.8,N
1505472635.6,286047000.9,N
1505472655.4,286046998.4,N
1505472675.3,286046997.7,N
1505472695.1,286046995.6,N
1505472715.8,286046995.4,N
1505472735.7,286046994.0,N
1505472755.5,286046995.6,N
1505472775.3,286046995.9,N
1505472795.2,286046997.7,N
1505472815.9,286046997.1,N
1505472835.7,286046994.6,N
1505472855.6,286046994.8,N
1505472875.4,286046988.5,P
1505472895.2,286046994.6,N
1505472915.1,286046991.4,N
1505472916.0,286046991.4,N
1505472935.8,286046989.2,N
1505472955.6,286046992.2,N
1505472975.5,286046993.4,N
1505472995.3,286046995.4,N
1505473015.1,286046999.5,N
1505473035.9,286046996.8,N
1505473055.7,286046995.4,N
1505473075.5,286046995.3,N
1505473095.3,286046997.7,N
1505473115.2,286046999.6,N
1505473135.0,286046999.0,N
1505473135.9,286046999.0,N
1505473155.7,286046998.5,N
1505473175.6,286046998.1,N
1505473195.4,286046999.2,N
